QPF
0.01 0.01 0.01 0.01 0.01 0.01 0.01 0.01 0.01 0.01 0.01 0.01 0.01 0.00 0.00 0.01 0.01 0.01 0.00 0.00 0.01 0.01 0.01 0.00 0.00 0.00 0.00 0.00 0.00 0.00 0.01 0.01 0.01 0.01 0.01 0.01 0.01 0.02 0.02 0.02 0.02 0.01 0.02
0.01 0.01 0.01 0.01 0.01 0.01 0.01 0.01 0.01 0.01 0.01 0.01 0.01 0.01 0.01 0.01 0.01 0.01 0.00 0.00 0.01 0.01 0.01 0.01 0.01 0.01 0.00 0.00 0.00 0.00 0.00 0.00 0.00 0.00 0.00 0.01 0.01 0.02 0.02 0.02 0.02 0.02 0.02
0.00 0.00 0.00 0.01 0.01 0.01 0.01 0.01 0.01 0.01 0.01 0.01 0.01 0.01 0.01 0.01 0.01 0.01 0.00 0.00 0.01 0.01 0.01 0.02 0.02 0.01 0.00 0.00 0.00 0.00 0.00 0.00 0.00 0.01 0.01 0.01 0.01 0.02 0.02 0.02 0.02 0.02 0.02
0.00 0.00 0.00 0.01 0.02 0.01 0.01 0.01 0.00 0.01 0.01 0.01 0.01 0.01 0.01 0.01 0.01 0.01 0.01 0.01 0.01 0.01 0.01 0.01 0.01 0.01 0.01 0.01 0.00 0.00 0.00 0.00 0.01 0.01 0.01 0.01 0.01 0.02 0.02 0.02 0.03 0.03 0.02
0.01 0.01 0.01 0.01 0.02 0.02 0.02 0.02 0.01 0.01 0.02 0.02 0.03 0.02 0.01 0.00 0.01 0.01 0.01 0.02 0.02 0.02 0.03 0.03 0.02 0.02 0.02 0.02 0.02 0.01 0.01 0.01 0.01 0.01 0.01 0.01 0.02 0.04 0.03 0.03 0.03 0.04 0.03
0.01 0.01 0.01 0.02 0.02 0.02 0.02 0.02 0.02 0.02 0.02 0.03 0.04 0.04 0.03 0.02 0.02 0.02 0.02 0.02 0.02 0.03 0.03 0.03 0.02 0.02 0.02 0.02 0.02 0.02 0.02 0.01 0.01 0.02 0.02 0.02 0.03 0.03 0.03 0.03 0.03 0.04 0.04
0.01 0.01 0.02 0.02 0.02 0.02 0.02 0.02 0.02 0.03 0.03 0.02 0.02 0.03 0.03 0.02 0.02 0.03 0.03 0.03 0.03 0.02 0.02 0.02 0.02 0.02 0.01 0.01 0.01 0.01 0.01 0.01 0.02 0.03 0.04 0.04 0.04 0.04 0.04 0.04 0.04 0.05 0.04
0.01 0.02 0.02 0.02 0.02 0.02 0.02 0.02 0.02 0.02 0.02 0.03 0.03 0.03 0.03 0.03 0.03 0.03 0.03 0.04 0.04 0.03 0.02 0.02 0.02 0.03 0.02 0.02 0.02 0.02 0.02 0.02 0.02 0.03 0.04 0.04 0.03 0.03 0.03 0.03 0.03 0.04 0.04
0.01 0.01 0.02 0.02 0.02 0.03 0.02 0.01 0.01 0.02 0.02 0.03 0.03 0.03 0.03 0.04 0.04 0.04 0.05 0.04 0.04 0.04 0.05 0.06 0.05 0.04 0.04 0.04 0.04 0.04 0.03 0.03 0.03 0.03 0.02 0.02 0.02 0.03 0.03 0.03 0.02 0.03 0.05
0.02 0.02 0.02 0.02 0.04 0.04 0.05 0.03 0.02 0.03 0.03 0.03 0.03 0.03 0.03 0.04 0.04 0.04 0.04 0.04 0.05 0.06 0.07 0.08 0.08 0.06 0.05 0.04 0.04 0.03 0.03 0.03 0.02 0.02 0.02 0.01 0.02 0.03 0.04 0.04 0.04 0.03 0.04
0.02 0.03 0.04 0.06 0.09 0.08 0.07 0.03 0.03 0.03 0.04 0.04 0.03 0.03 0.03 0.04 0.04 0.03 0.03 0.04 0.04 0.05 0.06 0.07 0.08 0.08 0.08 0.05 0.04 0.03 0.04 0.03 0.02 0.02 0.02 0.02 0.02 0.03 0.04 0.06 0.06 0.06 0.06
0.02 0.02 0.02 0.06 0.05 0.05 0.04 0.04 0.04 0.04 0.04 0.04 0.04 0.03 0.03 0.04 0.03 0.02 0.02 0.02 0.03 0.04 0.05 0.05 0.06 0.08 0.10 0.10 0.07 0.06 0.04 0.02 0.02 0.02 0.02 0.02 0.03 0.04 0.05 0.07 0.08 0.09 0.09
0.01 0.01 0.01 0.02 0.03 0.03 0.04 0.04 0.04 0.04 0.04 0.03 0.02 0.02 0.03 0.03 0.03 0.02 0.02 0.02 0.03 0.04 0.05 0.06 0.07 0.09 0.10 0.10 0.10 0.09 0.06 0.04 0.04 0.03 0.03 0.03 0.05 0.07 0.07 0.08 0.10 0.09 0.09
0.01 0.01 0.01 0.01 0.02 0.03 0.04 0.03 0.03 0.02 0.02 0.02 0.02 0.01 0.02 0.03 0.03 0.02 0.02 0.02 0.03 0.04 0.06 0.08 0.09 0.10 0.12 0.12 0.10 0.11 0.10 0.09 0.05 0.05 0.06 0.06 0.06 0.07 0.07 0.07 0.08 0.09 0.08
0.01 0.01 0.01 0.02 0.02 0.03 0.03 0.02 0.02 0.02 0.02 0.02 0.01 0.01 0.02 0.03 0.03 0.03 0.03 0.03 0.03 0.04 0.05 0.09 0.10 0.10 0.11 0.12 0.10 0.09 0.09 0.09 0.09 0.07 0.07 0.08 0.07 0.05 0.05 0.07 0.08 0.08 0.10
0.01 0.01 0.01 0.02 0.03 0.03 0.03 0.02 0.02 0.02 0.02 0.02 0.01 0.01 0.02 0.02 0.02 0.02 0.03 0.04 0.05 0.05 0.05 0.07 0.10 0.11 0.11 0.11 0.11 0.11 0.12 0.12 0.10 0.08 0.07 0.06 0.05 0.04 0.05 0.05 0.05 0.06 0.08
0.02 0.02 0.02 0.03 0.03 0.04 0.04 0.04 0.03 0.02 0.02 0.03 0.04 0.04 0.03 0.02 0.03 0.03 0.03 0.04 0.05 0.06 0.07 0.07 0.09 0.13 0.15 0.14 0.12 0.11 0.11 0.10 0.10 0.08 0.08 0.06 0.04 0.03 0.04 0.04 0.03 0.04 0.05
0.03 0.02 0.03 0.03 0.04 0.05 0.05 0.05 0.03 0.03 0.03 0.03 0.03 0.03 0.03 0.04 0.04 0.04 0.04 0.04 0.04 0.04 0.05 0.07 0.09 0.12 0.15 0.15 0.14 0.11 0.09 0.08 0.08 0.08 0.07 0.06 0.05 0.04 0.04 0.03 0.03 0.04 0.06
0.03 0.04 0.05 0.07 0.10 0.11 0.08 0.05 0.04 0.04 0.04 0.03 0.03 0.04 0.05 0.04 0.03 0.04 0.04 0.05 0.04 0.04 0.04 0.06 0.08 0.09 0.10 0.10 0.09 0.09 0.08 0.07 0.06 0.05 0.04 0.03 0.03 0.03 0.03 0.03 0.02 0.03 0.05
0.03 0.05 0.07 0.09 0.11 0.11 0.07 0.05 0.04 0.05 0.07 0.06 0.04 0.05 0.06 0.04 0.03 0.04 0.04 0.05 0.06 0.06 0.05 0.06 0.06 0.07 0.05 0.05 0.06 0.05 0.05 0.04 0.04 0.03 0.03 0.02 0.03 0.03 0.03 0.04 0.04 0.03 0.03
0.05 0.07 0.07 0.11 0.13 0.10 0.06 0.05 0.05 0.05 0.07 0.10 0.07 0.06 0.06 0.05 0.04 0.05 0.05 0.06 0.06 0.05 0.05 0.05 0.06 0.06 0.05 0.05 0.04 0.04 0.04 0.03 0.03 0.02 0.03 0.03 0.03 0.04 0.04 0.04 0.05 0.05 0.04
0.05 0.07 0.08 0.10 0.10 0.07 0.05 0.05 0.06 0.06 0.06 0.09 0.11 0.08 0.07 0.05 0.04 0.04 0.05 0.06 0.07 0.07 0.07 0.08 0.08 0.07 0.07 0.06 0.04 0.04 0.04 0.04 0.03 0.02 0.03 0.03 0.02 0.03 0.04 0.04 0.04 0.05 0.04
0.05 0.07 0.09 0.09 0.08 0.06 0.05 0.05 0.07 0.08 0.07 0.06 0.09 0.06 0.05 0.05 0.04 0.05 0.05 0.06 0.07 0.09 0.09 0.11 0.12 0.12 0.10 0.08 0.06 0.05 0.05 0.05 0.04 0.03 0.02 0.03 0.03 0.03 0.04 0.04 0.04 0.05 0.05
0.05 0.04 0.04 0.05 0.05 0.06 0.08 0.07 0.06 0.07 0.06 0.04 0.06 0.05 0.03 0.04 0.05 0.06 0.06 0.07 0.07 0.07 0.06 0.07 0.08 0.10 0.10 0.09 0.08 0.07 0.07 0.07 0.06 0.05 0.03 0.03 0.03 0.03 0.04 0.04 0.04 0.04 0.04
0.04 0.05 0.05 0.07 0.06 0.06 0.07 0.07 0.07 0.08 0.07 0.06 0.06 0.05 0.05 0.05 0.05 0.06 0.06 0.05 0.04 0.04 0.05 0.04 0.04 0.05 0.05 0.05 0.07 0.07 0.09 0.08 0.06 0.05 0.04 0.03 0.03 0.03 0.03 0.03 0.03 0.03 0.04
0.05 0.07 0.08 0.08 0.07 0.07 0.07 0.08 0.09 0.10 0.10 0.09 0.07 0.05 0.04 0.03 0.04 0.04 0.04 0.03 0.03 0.04 0.04 0.04 0.04 0.04 0.05 0.06 0.07 0.06 0.06 0.06 0.06 0.05 0.04 0.03 0.03 0.02 0.02 0.03 0.02 0.02 0.03
MSLP
1006.92 1007.20 1007.73 1008.40 1009.08 1009.67 1010.09 1010.35 1010.49 1010.58 1010.74 1011.02 1011.45 1012.03 1012.69 1013.36 1013.95 1014.42 1014.73 1014.91 1015.01 1015.07 1015.17 1015.32 1015.52 1015.77 1016.01 1016.20 1016.32 1016.36 1016.33 1016.26 1016.19 1016.15 1016.14 1016.17 1016.22 1016.27 1016.29 1016.29 1016.26 1016.21 1016.17
1006.94 1007.29 1007.85 1008.53 1009.20 1009.76 1010.17 1010.42 1010.55 1010.65 1010.81 1011.10 1011.53 1012.10 1012.75 1013.40 1013.98 1014.44 1014.75 1014.93 1015.03 1015.11 1015.21 1015.37 1015.59 1015.83 1016.07 1016.25 1016.36 1016.38 1016.33 1016.24 1016.15 1016.09 1016.06 1016.08 1016.12 1016.16 1016.19 1016.18 1016.15 1016.10 1016.06
1006.86 1007.27 1007.86 1008.55 1009.23 1009.81 1010.24 1010.53 1010.71 1010.86 1011.04 1011.33 1011.75 1012.28 1012.86 1013.45 1013.97 1014.38 1014.66 1014.83 1014.94 1015.05 1015.19 1015.38 1015.61 1015.87 1016.10 1016.27 1016.34 1016.33 1016.25 1016.12 1016.00 1015.91 1015.87 1015.87 1015.91 1015.95 1015.97 1015.97 1015.95 1015.91 1015.87
1006.75 1007.20 1007.82 1008.53 1009.23 1009.85 1010.35 1010.71 1010.97 1011.18 1011.41 1011.71 1012.09 1012.55 1013.05 1013.53 1013.96 1014.29 1014.53 1014.69 1014.82 1014.96 1015.14 1015.37 1015.64 1015.90 1016.12 1016.26 1016.30 1016.24 1016.11 1015.94 1015.77 1015.65 1015.59 1015.58 1015.61 1015.65 1015.69 1015.69 1015.68 1015.65 1015.63
1006.69 1007.16 1007.79 1008.52 1009.26 1009.93 1010.50 1010.95 1011.30 1011.58 1011.86 1012.16 1012.51 1012.89 1013.29 1013.66 1013.99 1014.24 1014.43 1014.59 1014.74 1014.91 1015.14 1015.40 1015.69 1015.96 1016.16 1016.26 1016.25 1016.13 1015.94 1015.72 1015.52 1015.37 1015.29 1015.27 1015.29 1015.34 1015.37 1015.39 1015.39 1015.38 1015.37
1006.74 1007.22 1007.85 1008.58 1009.34 1010.05 1010.68 1011.21 1011.63 1011.98 1012.30 1012.61 1012.92 1013.24 1013.55 1013.84 1014.08 1014.27 1014.42 1014.56 1014.73 1014.93 1015.19 1015.48 1015.77 1016.03 1016.20 1016.26 1016.19 1016.02 1015.78 1015.52 1015.28 1015.11 1015.01 1014.99 1015.01 1015.06 1015.10 1015.12 1015.13 1015.12 1015.12
1006.94 1007.40 1008.01 1008.73 1009.48 1010.20 1010.86 1011.42 1011.90 1012.30 1012.64 1012.96 1013.26 1013.54 1013.80 1014.02 1014.21 1014.36 1014.49 1014.63 1014.80 1015.02 1015.29 1015.58 1015.87 1016.10 1016.23 1016.25 1016.13 1015.92 1015.64 1015.35 1015.10 1014.91 1014.81 1014.79 1014.81 1014.86 1014.91 1014.93 1014.93 1014.91 1014.91
1007.24 1007.67 1008.25 1008.92 1009.63 1010.32 1010.97 1011.53 1012.02 1012.45 1012.81 1013.14 1013.45 1013.73 1013.97 1014.19 1014.36 1014.50 1014.63 1014.78 1014.95 1015.16 1015.42 1015.69 1015.94 1016.13 1016.23 1016.20 1016.05 1015.82 1015.52 1015.23 1014.97 1014.79 1014.70 1014.68 1014.72 1014.77 1014.81 1014.83 1014.81 1014.78 1014.75
1007.57 1007.97 1008.49 1009.09 1009.73 1010.36 1010.96 1011.50 1011.97 1012.39 1012.78 1013.13 1013.46 1013.77 1014.05 1014.29 1014.49 1014.66 1014.80 1014.95 1015.11 1015.30 1015.52 1015.75 1015.96 1016.10 1016.15 1016.10 1015.94 1015.69 1015.41 1015.13 1014.89 1014.74 1014.66 1014.66 1014.70 1014.76 1014.80 1014.80 1014.77 1014.71 1014.64
1007.85 1008.20 1008.66 1009.19 1009.74 1010.30 1010.82 1011.31 1011.75 1012.17 1012.57 1012.95 1013.33 1013.69 1014.03 1014.33 1014.58 1014.79 1014.95 1015.10 1015.25 1015.41 1015.58 1015.75 1015.89 1015.99 1016.00 1015.93 1015.77 1015.54 1015.28 1015.03 1014.83 1014.71 1014.66 1014.67 1014.73 1014.78 1014.82 1014.81 1014.76 1014.67 1014.57
1008.00 1008.32 1008.72 1009.17 1009.65 1010.12 1010.58 1011.02 1011.43 1011.84 1012.26 1012.68 1013.11 1013.54 1013.95 1014.31 1014.62 1014.87 1015.06 1015.21 1015.33 1015.44 1015.56 1015.66 1015.75 1015.80 1015.79 1015.70 1015.55 1015.35 1015.13 1014.92 1014.76 1014.66 1014.64 1014.67 1014.73 1014.79 1014.82 1014.80 1014.74 1014.63 1014.51
1008.01 1008.31 1008.66 1009.06 1009.48 1009.90 1010.31 1010.71 1011.11 1011.52 1011.96 1012.42 1012.90 1013.38 1013.85 1014.27 1014.63 1014.92 1015.12 1015.26 1015.35 1015.42 1015.47 1015.52 1015.55 1015.56 1015.53 1015.45 1015.31 1015.14 1014.95 1014.78 1014.64 1014.57 1014.56 1014.60 1014.66 1014.72 1014.75 1014.74 1014.67 1014.56 1014.42
1007.92 1008.20 1008.53 1008.90 1009.29 1009.69 1010.09 1010.49 1010.90 1011.32 1011.78 1012.26 1012.78 1013.30 1013.80 1014.25 1014.64 1014.93 1015.13 1015.26 1015.32 1015.34 1015.35 1015.35 1015.34 1015.32 1015.28 1015.19 1015.07 1014.92 1014.75 1014.59 1014.47 1014.40 1014.39 1014.42 1014.49 1014.55 1014.59 1014.58 1014.52 1014.41 1014.28
1007.81 1008.09 1008.41 1008.78 1009.17 1009.59 1010.01 1010.44 1010.88 1011.33 1011.80 1012.30 1012.82 1013.33 1013.83 1014.28 1014.65 1014.94 1015.12 1015.22 1015.26 1015.25 1015.22 1015.19 1015.16 1015.12 1015.06 1014.98 1014.86 1014.71 1014.54 1014.38 1014.24 1014.16 1014.13 1014.15 1014.20 1014.26 1014.31 1014.31 1014.28 1014.19 1014.07
1007.78 1008.05 1008.38 1008.76 1009.19 1009.66 1010.13 1010.61 1011.10 1011.57 1012.06 1012.55 1013.03 1013.51 1013.97 1014.37 1014.70 1014.95 1015.10 1015.18 1015.19 1015.16 1015.12 1015.07 1015.02 1014.97 1014.90 1014.81 1014.68 1014.52 1014.33 1014.14 1013.98 1013.85 1013.79 1013.78 1013.82 1013.87 1013.93 1013.95 1013.94 1013.89 1013.80
1007.88 1008.15 1008.49 1008.91 1009.39 1009.91 1010.46 1011.01 1011.54 1012.04 1012.52 1012.97 1013.40 1013.81 1014.18 1014.51 1014.78 1014.97 1015.09 1015.14 1015.14 1015.10 1015.05 1015.00 1014.94 1014.88 1014.80 1014.69 1014.54 1014.35 1014.12 1013.89 1013.68 1013.51 1013.40 1013.35 1013.36 1013.40 1013.46 1013.51 1013.53 1013.51 1013.46
1008.13 1008.40 1008.75 1009.20 1009.73 1010.33 1010.94 1011.55 1012.12 1012.63 1013.09 1013.49 1013.85 1014.16 1014.43 1014.67 1014.86 1014.99 1015.08 1015.11 1015.10 1015.07 1015.02 1014.97 1014.91 1014.84 1014.74 1014.60 1014.42 1014.19 1013.92 1013.63 1013.36 1013.14 1012.98 1012.88 1012.86 1012.89 1012.95 1013.02 1013.06 1013.07 1013.05
1008.50 1008.76 1009.12 1009.60 1010.18 1010.82 1011.49 1012.15 1012.74 1013.25 1013.67 1014.01 1014.27 1014.49 1014.66 1014.81 1014.92 1015.01 1015.06 1015.08 1015.08 1015.05 1015.01 1014.96 1014.89 1014.81 1014.69 1014.52 1014.30 1014.02 1013.71 1013.37 1013.05 1012.77 1012.55 1012.42 1012.36 1012.36 1012.41 1012.48 1012.54 1012.57 1012.57
1008.92 1009.17 1009.54 1010.03 1010.64 1011.32 1012.02 1012.70 1013.29 1013.79 1014.16 1014.43 1014.61 1014.74 1014.83 1014.89 1014.95 1015.00 1015.03 1015.05 1015.05 1015.03 1014.99 1014.94 1014.86 1014.75 1014.61 1014.41 1014.15 1013.84 1013.49 1013.11 1012.74 1012.41 1012.14 1011.95 1011.85 1011.82 1011.84 1011.89 1011.95 1011.99 1012.00
1009.31 1009.57 1009.93 1010.44 1011.05 1011.74 1012.45 1013.12 1013.70 1014.16 1014.49 1014.70 1014.81 1014.87 1014.89 1014.91 1014.93 1014.96 1014.98 1015.00 1015.01 1014.99 1014.95 1014.88 1014.78 1014.65 1014.48 1014.25 1013.97 1013.63 1013.24 1012.83 1012.43 1012.05 1011.74 1011.50 1011.34 1011.26 1011.24 1011.25 1011.29 1011.32 1011.33
1009.64 1009.90 1010.27 1010.77 1011.38 1012.06 1012.75 1013.39 1013.94 1014.36 1014.64 1014.79 1014.86 1014.87 1014.86 1014.85 1014.85 1014.88 1014.91 1014.93 1014.93 1014.91 1014.86 1014.77 1014.65 1014.49 1014.28 1014.03 1013.73 1013.37 1012.98 1012.55 1012.12 1011.71 1011.34 1011.04 1010.82 1010.67 1010.58 1010.54 1010.53 1010.54 1010.54
1009.90 1010.17 1010.54 1011.03 1011.62 1012.27 1012.92 1013.52 1014.02 1014.39 1014.62 1014.74 1014.77 1014.76 1014.73 1014.72 1014.73 1014.76 1014.79 1014.82 1014.82 1014.78 1014.71 1014.59 1014.44 1014.24 1014.01 1013.74 1013.43 1013.07 1012.67 1012.24 1011.79 1011.35 1010.94 1010.57 1010.27 1010.03 1009.86 1009.74 1009.67 1009.63 1009.62
1010.13 1010.41 1010.78 1011.25 1011.80 1012.40 1013.00 1013.54 1013.98 1014.29 1014.49 1014.57 1014.58 1014.56 1014.54 1014.53 1014.55 1014.59 1014.63 1014.65 1014.64 1014.59 1014.48 1014.33 1014.14 1013.92 1013.67 1013.38 1013.07 1012.71 1012.32 1011.89 1011.43 1010.96 1010.50 1010.07 1009.68 1009.34 1009.07 1008.87 1008.72 1008.62 1008.57
1010.38 1010.67 1011.03 1011.48 1011.98 1012.52 1013.04 1013.51 1013.88 1014.14 1014.29 1014.35 1014.34 1014.32 1014.30 1014.30 1014.32 1014.37 1014.40 1014.42 1014.39 1014.31 1014.17 1013.98 1013.76 1013.50 1013.23 1012.93 1012.61 1012.27 1011.88 1011.46 1011.00 1010.51 1010.01 1009.51 1009.03 1008.61 1008.23 1007.93 1007.69 1007.53 1007.44
1010.72 1011.01 1011.35 1011.76 1012.20 1012.66 1013.10 1013.48 1013.78 1013.97 1014.08 1014.10 1014.08 1014.04 1014.02 1014.02 1014.04 1014.08 1014.10 1014.10 1014.04 1013.93 1013.75 1013.53 1013.27 1012.98 1012.68 1012.38 1012.06 1011.72 1011.34 1010.93 1010.47 1009.97 1009.44 1008.89 1008.35 1007.83 1007.37 1006.97 1006.65 1006.42 1006.27
1011.15 1011.44 1011.75 1012.09 1012.46 1012.83 1013.17 1013.47 1013.68 1013.81 1013.86 1013.85 1013.81 1013.75 1013.71 1013.70 1013.70 1013.72 1013.72 1013.69 1013.60 1013.45 1013.24 1012.97 1012.67 1012.35 1012.03 1011.70 1011.37 1011.03 1010.66 1010.26 1009.82 1009.32 1008.78 1008.20 1007.62 1007.04 1006.51 1006.03 1005.63 1005.33 1005.13
Thickness
5816 5812 5799 5796 5793 5790 5788 5786 5784 5782 5779 5776 5773 5771 5768 5766 5763 5761 5759 5757 5755 5754 5752 5751 5750 5749 5748 5747 5746 5745 5744 5743 5743 5742 5742 5741 5741 5740 5740 5740 5740 5743 5742
5817 5810 5797 5794 5791 5788 5786 5784 5781 5779 5776 5773 5771 5768 5765 5763 5760 5758 5756 5753 5752 5751 5750 5748 5747 5746 5745 5744 5743 5742 5741 5740 5739 5739 5739 5739 5739 5738 5738 5738 5738 5741 5739
5814 5806 5795 5791 5788 5785 5783 5781 5778 5776 5773 5770 5767 5765 5762 5759 5757 5755 5753 5750 5749 5747 5746 5745 5744 5743 5742 5741 5740 5739 5738 5737 5737 5737 5737 5740 5741 5737 5735 5735 5735 5735 5735
5809 5803 5796 5788 5785 5782 5779 5777 5775 5772 5770 5767 5764 5761 5758 5756 5754 5752 5750 5748 5746 5744 5743 5742 5741 5740 5739 5738 5737 5736 5735 5735 5734 5734 5738 5741 5741 5736 5733 5732 5732 5732 5732
5805 5799 5792 5785 5782 5779 5776 5774 5771 5769 5766 5763 5760 5758 5755 5753 5751 5749 5747 5745 5743 5742 5740 5739 5737 5736 5735 5734 5734 5733 5732 5732 5732 5732 5738 5739 5738 5734 5731 5729 5729 5729 5729
5801 5797 5790 5782 5778 5776 5773 5770 5768 5765 5762 5760 5757 5754 5752 5749 5747 5746 5744 5742 5740 5738 5737 5736 5734 5733 5731 5731 5730 5730 5729 5729 5729 5735 5736 5735 5735 5731 5728 5727 5727 5726 5726
5799 5795 5787 5779 5775 5772 5769 5766 5764 5762 5759 5757 5754 5751 5748 5746 5744 5742 5740 5738 5736 5735 5734 5732 5731 5729 5728 5727 5727 5727 5726 5726 5728 5734 5734 5732 5731 5727 5725 5724 5724 5724 5723
5796 5792 5783 5775 5771 5768 5765 5763 5761 5759 5756 5753 5751 5748 5745 5743 5741 5739 5737 5735 5733 5731 5730 5729 5728 5727 5725 5724 5724 5723 5723 5722 5726 5730 5730 5728 5725 5723 5722 5721 5721 5721 5720
5793 5788 5783 5776 5769 5765 5762 5760 5758 5755 5753 5750 5747 5745 5742 5740 5738 5736 5734 5732 5730 5728 5727 5726 5725 5724 5722 5721 5720 5720 5719 5720 5722 5727 5727 5725 5722 5719 5718 5717 5717 5717 5717
5787 5784 5781 5776 5771 5767 5762 5758 5755 5752 5750 5747 5744 5741 5739 5737 5735 5733 5732 5729 5727 5725 5724 5723 5722 5721 5719 5718 5717 5716 5716 5717 5722 5724 5724 5722 5717 5715 5714 5714 5714 5714 5714
5780 5779 5777 5774 5770 5767 5764 5758 5754 5750 5747 5744 5742 5739 5736 5737 5736 5733 5731 5727 5724 5722 5721 5719 5718 5718 5716 5715 5714 5713 5712 5717 5720 5720 5719 5716 5713 5711 5710 5710 5710 5710 5710
5774 5774 5774 5771 5768 5765 5762 5757 5753 5750 5747 5744 5742 5739 5737 5735 5733 5732 5728 5724 5722 5720 5718 5717 5715 5714 5713 5716 5714 5711 5713 5715 5716 5716 5716 5711 5709 5708 5707 5707 5707 5707 5707
5772 5770 5770 5768 5764 5762 5759 5756 5752 5749 5745 5743 5739 5736 5734 5732 5730 5728 5726 5724 5721 5719 5719 5716 5715 5715 5714 5714 5712 5711 5711 5711 5712 5712 5711 5707 5705 5704 5703 5703 5702 5703 5703
5768 5766 5766 5764 5761 5757 5754 5752 5749 5746 5743 5741 5737 5733 5731 5729 5727 5726 5723 5722 5720 5719 5717 5715 5713 5713 5710 5710 5708 5707 5707 5706 5706 5706 5705 5703 5700 5700 5699 5699 5699 5699 5699
5763 5761 5760 5758 5755 5751 5748 5746 5745 5742 5740 5737 5734 5730 5727 5726 5724 5723 5720 5717 5716 5715 5713 5711 5710 5709 5707 5706 5705 5704 5702 5701 5701 5701 5700 5698 5696 5695 5695 5695 5695 5695 5696
5758 5757 5756 5753 5750 5746 5743 5741 5739 5738 5735 5733 5730 5727 5723 5722 5720 5719 5716 5714 5713 5711 5710 5708 5706 5704 5703 5702 5701 5700 5697 5696 5695 5694 5695 5695 5692 5691 5690 5690 5690 5691 5691
5753 5752 5750 5748 5745 5741 5739 5736 5735 5733 5732 5730 5726 5722 5719 5718 5715 5714 5713 5711 5710 5708 5705 5702 5701 5699 5698 5697 5696 5695 5693 5691 5690 5689 5689 5690 5690 5687 5686 5685 5685 5685 5686
5749 5747 5745 5745 5741 5737 5734 5731 5730 5728 5727 5725 5722 5718 5715 5713 5710 5709 5709 5708 5705 5703 5701 5699 5697 5695 5694 5692 5692 5690 5689 5687 5686 5685 5685 5685 5685 5685 5684 5682 5680 5680 5681
5743 5742 5739 5738 5736 5733 5730 5726 5725 5722 5721 5719 5717 5714 5711 5709 5706 5705 5705 5703 5700 5699 5697 5695 5693 5691 5688 5687 5687 5685 5684 5683 5682 5682 5680 5680 5680 5679 5680 5678 5677 5676 5676
5738 5736 5733 5731 5729 5727 5725 5722 5719 5718 5716 5714 5712 5709 5706 5704 5702 5701 5700 5698 5696 5695 5692 5689 5686 5683 5682 5681 5681 5680 5679 5679 5678 5678 5676 5676 5675 5675 5675 5675 5674 5674 5672
5731 5729 5727 5725 5722 5720 5718 5716 5714 5712 5710 5709 5707 5704 5701 5699 5697 5695 5695 5692 5690 5689 5686 5684 5681 5679 5677 5676 5673 5673 5675 5675 5674 5673 5673 5672 5672 5671 5671 5671 5671 5671 5671
5725 5723 5721 5719 5717 5715 5713 5711 5709 5706 5705 5704 5702 5699 5697 5695 5692 5692 5689 5688 5686 5683 5680 5678 5675 5674 5673 5671 5667 5665 5666 5668 5669 5671 5669 5668 5668 5668 5668 5668 5667 5667 5667
5719 5718 5716 5714 5712 5710 5708 5707 5704 5701 5700 5699 5697 5696 5694 5690 5688 5686 5684 5682 5680 5678 5675 5672 5670 5668 5667 5667 5665 5661 5660 5662 5664 5665 5664 5663 5662 5662 5663 5664 5664 5663 5663
5715 5714 5711 5709 5706 5704 5702 5701 5698 5696 5695 5694 5691 5690 5688 5686 5684 5681 5679 5676 5674 5672 5670 5668 5667 5664 5661 5661 5661 5659 5658 5658 5654 5657 5659 5659 5659 5658 5658 5660 5661 5660 5658
5710 5708 5706 5703 5701 5699 5698 5695 5693 5692 5691 5690 5687 5684 5682 5682 5679 5676 5674 5671 5669 5667 5665 5662 5660 5659 5658 5658 5657 5656 5654 5652 5652 5649 5651 5652 5654 5656 5656 5656 5656 5656 5655
5704 5702 5699 5697 5694 5694 5692 5690 5688 5686 5684 5683 5681 5679 5678 5677 5675 5672 5670 5667 5664 5662 5660 5657 5656 5655 5654 5653 5652 5652 5651 5649 5648 5647 5646 5646 5647 5651 5652 5652 5652 5652 5651